| time (UTC) | temp F | wind direction | speed knots | gust knots | rain 1hr in | rain 24hr in | rain mn in | humidity % | barometer mb |
| 20260505002003 | 70 | 0 | 0.0 | 0.0 | 0.00 | 0.00 | 0.00 | 39 | 1012.4 |
| 20260505001503 | 70 | 0 | 0.0 | 0.0 | 0.00 | 0.00 | 0.00 | 39 | 1012.4 |
| 20260505001004 | 71 | 0 | 0.0 | 0.0 | 0.00 | 0.00 | 0.00 | 38 | 1012.4 |
| 20260505000503 | 72 | 0 | 0.0 | 0.0 | 0.00 | 0.00 | 0.00 | 37 | 1012.4 |
| 20260505000003 | 72 | 0 | 0.0 | 0.0 | 0.00 | 0.00 | 0.00 | 37 | 1012.3 |
| 20260504235716 | 72 | 0 | 0.0 | 0.0 | 0.00 | 0.00 | 0.00 | 36 | 1012.3 |
| 20260504235003 | 73 | 0 | 0.0 | 0.0 | 0.00 | 0.00 | 0.00 | 36 | 1012.2 |
| 20260504234503 | 73 | 0 | 0.0 | 0.0 | 0.00 | 0.00 | 0.00 | 35 | 1012.2 |
| 20260504234003 | 74 | 0 | 0.0 | 0.0 | 0.00 | 0.00 | 0.00 | 35 | 1012.0 |
| 20260504233503 | 74 | 0 | 0.0 | 0.0 | 0.00 | 0.00 | 0.00 | 35 | 1012.1 |
| 20260504233003 | 74 | 0 | 0.0 | 0.0 | 0.00 | 0.00 | 0.00 | 34 | 1012.0 |
| 20260504232503 | 74 | 0 | 0.0 | 0.0 | 0.00 | 0.00 | 0.00 | 34 | 1011.9 |
| 20260504232003 | 75 | 0 | 0.0 | 0.0 | 0.00 | 0.00 | 0.00 | 35 | 1011.9 |
| 20260504231503 | 75 | 0 | 0.0 | 0.0 | 0.00 | 0.00 | 0.00 | 33 | 1012.0 |
| 20260504231217 | 75 | 0 | 0.0 | 0.0 | 0.00 | 0.00 | 0.00 | 33 | 1012.0 |
| 20260504230503 | 76 | 0 | 0.0 | 0.0 | 0.00 | 0.00 | 0.00 | 32 | 1011.9 |
| 20260504230004 | 76 | 0 | 0.0 | 0.0 | 0.00 | 0.00 | 0.00 | 31 | 1011.9 |
| 20260504225503 | 76 | 0 | 0.0 | 0.9 | 0.00 | 0.00 | 0.00 | 31 | 1011.8 |
| 20260504225003 | 77 | 0 | 0.0 | 0.9 | 0.00 | 0.00 | 0.00 | 30 | 1011.9 |
| 20260504224503 | 77 | 0 | 0.0 | 0.0 | 0.00 | 0.00 | 0.00 | 29 | 1011.9 |
| 20260504224003 | 77 | 0 | 0.0 | 4.3 | 0.00 | 0.00 | 0.00 | 30 | 1011.9 |
| 20260504223503 | 78 | 0 | 0.0 | 4.3 | 0.00 | 0.00 | 0.00 | 27 | 1011.9 |
| 20260504223003 | 78 | 0 | 0.0 | 2.6 | 0.00 | 0.00 | 0.00 | 28 | 1011.8 |
| 20260504222503 | 78 | 0 | 0.0 | 2.6 | 0.00 | 0.00 | 0.00 | 26 | 1011.9 |
| 20260504222003 | 78 | 0 | 0.0 | 0.0 | 0.00 | 0.00 | 0.00 | 27 | 1011.8 |
| 20260504221503 | 78 | 0 | 0.0 | 0.0 | 0.00 | 0.00 | 0.00 | 28 | 1011.9 |
| 20260504221003 | 78 | 0 | 0.0 | 1.7 | 0.00 | 0.00 | 0.00 | 28 | 1011.8 |
| 20260504220503 | 78 | 0 | 0.0 | 1.7 | 0.00 | 0.00 | 0.00 | 26 | 1011.9 |
| 20260504220003 | 78 | 0 | 0.0 | 0.9 | 0.00 | 0.00 | 0.00 | 27 | 1011.9 |
| 20260504215503 | 79 | 0 | 0.0 | 2.6 | 0.00 | 0.00 | 0.00 | 26 | 1011.9 |
| 20260504215003 | 79 | 0 | 0.0 | 2.6 | 0.00 | 0.00 | 0.00 | 27 | 1011.9 |
| 20260504214503 | 79 | 0 | 0.0 | 2.6 | 0.00 | 0.00 | 0.00 | 26 | 1011.9 |
| 20260504214216 | 79 | 0 | 0.0 | 2.6 | 0.00 | 0.00 | 0.00 | 26 | 1011.9 |
| 20260504213503 | 79 | 0 | 0.0 | 1.7 | 0.00 | 0.00 | 0.00 | 26 | 1011.9 |
| 20260504213003 | 79 | 0 | 0.0 | 4.3 | 0.00 | 0.00 | 0.00 | 27 | 1012.0 |
| 20260504212504 | 79 | 0 | 0.0 | 4.3 | 0.00 | 0.00 | 0.00 | 28 | 1011.9 |
| 20260504212003 | 79 | 0 | 0.0 | 2.6 | 0.00 | 0.00 | 0.00 | 29 | 1012.0 |
| 20260504211503 | 79 | 0 | 0.0 | 2.6 | 0.00 | 0.00 | 0.00 | 29 | 1011.9 |
| 20260504211003 | 80 | 0 | 0.0 | 1.7 | 0.00 | 0.00 | 0.00 | 29 | 1012.0 |
| 20260504210503 | 80 | 0 | 0.0 | 0.0 | 0.00 | 0.00 | 0.00 | 29 | 1011.9 |
| 20260504210004 | 80 | 0 | 0.0 | 0.0 | 0.00 | 0.00 | 0.00 | 31 | 1012.0 |
| 20260504205503 | 80 | 0 | 0.0 | 0.0 | 0.00 | 0.00 | 0.00 | 31 | 1012.1 |
| 20260504205003 | 80 | 0 | 0.0 | 0.0 | 0.00 | 0.00 | 0.00 | 28 | 1012.1 |
| 20260504204504 | 80 | 0 | 0.0 | 1.7 | 0.00 | 0.00 | 0.00 | 28 | 1012.2 |
| 20260504204216 | 80 | 0 | 0.0 | 1.7 | 0.00 | 0.00 | 0.00 | 29 | 1012.3 |
| 20260504203503 | 80 | 0 | 0.0 | 2.6 | 0.00 | 0.00 | 0.00 | 27 | 1012.3 |
| 20260504203003 | 80 | 0 | 0.0 | 2.6 | 0.00 | 0.00 | 0.00 | 29 | 1012.4 |
| 20260504202503 | 80 | 0 | 0.0 | 1.7 | 0.00 | 0.00 | 0.00 | 28 | 1012.5 |
| 20260504202004 | 80 | 0 | 0.0 | 0.9 | 0.00 | 0.00 | 0.00 | 29 | 1012.6 |
| 20260504201503 | 80 | 0 | 0.0 | 0.0 | 0.00 | 0.00 | 0.00 | 31 | 1012.6 |
| 20260504201003 | 80 | 0 | 0.0 | 0.0 | 0.00 | 0.00 | 0.00 | 30 | 1012.6 |
| 20260504200503 | 80 | 0 | 0.0 | 1.7 | 0.00 | 0.00 | 0.00 | 28 | 1012.5 |
| 20260504200003 | 80 | 0 | 0.0 | 1.7 | 0.00 | 0.00 | 0.00 | 28 | 1012.7 |
| 20260504195503 | 80 | 0 | 0.0 | 3.5 | 0.00 | 0.00 | 0.00 | 28 | 1012.8 |
| 20260504195003 | 80 | 0 | 0.0 | 3.5 | 0.00 | 0.00 | 0.00 | 27 | 1012.8 |
| 20260504194503 | 80 | 0 | 0.0 | 1.7 | 0.00 | 0.00 | 0.00 | 26 | 1012.8 |
| 20260504194003 | 80 | 0 | 0.0 | 1.7 | 0.00 | 0.00 | 0.00 | 27 | 1012.9 |
| 20260504193503 | 80 | 0 | 0.0 | 0.0 | 0.00 | 0.00 | 0.00 | 28 | 1012.9 |
| 20260504193004 | 80 | 0 | 0.0 | 0.9 | 0.00 | 0.00 | 0.00 | 27 | 1012.9 |
| 20260504192503 | 80 | 0 | 0.0 | 0.9 | 0.00 | 0.00 | 0.00 | 26 | 1013.0 |
| 20260504192003 | 80 | 0 | 0.0 | 2.6 | 0.00 | 0.00 | 0.00 | 27 | 1013.1 |
| 20260504191503 | 80 | 0 | 0.0 | 2.6 | 0.00 | 0.00 | 0.00 | 29 | 1013.1 |
| 20260504191215 | 80 | 0 | 0.0 | 0.9 | 0.00 | 0.00 | 0.00 | 32 | 1013.2 |
| 20260504190504 | 80 | 0 | 0.0 | 0.0 | 0.00 | 0.00 | 0.00 | 28 | 1013.3 |
| 20260504190004 | 80 | 0 | 0.0 | 0.0 | 0.00 | 0.00 | 0.00 | 28 | 1013.5 |
| 20260504185714 | 79 | 0 | 0.0 | 0.0 | 0.00 | 0.00 | 0.00 | 27 | 1013.5 |
| 20260504185003 | 79 | 0 | 0.0 | 0.9 | 0.00 | 0.00 | 0.00 | 30 | 1013.6 |
| 20260504184503 | 79 | 0 | 0.0 | 0.9 | 0.00 | 0.00 | 0.00 | 30 | 1013.6 |
| 20260504184003 | 79 | 0 | 0.0 | 0.0 | 0.00 | 0.00 | 0.00 | 28 | 1013.7 |
| 20260504183716 | 79 | 0 | 0.0 | 0.9 | 0.00 | 0.00 | 0.00 | 30 | 1013.7 |
| 20260504183003 | 78 | 0 | 0.0 | 0.9 | 0.00 | 0.00 | 0.00 | 33 | 1013.9 |
| 20260504182503 | 78 | 0 | 0.0 | 0.0 | 0.00 | 0.00 | 0.00 | 31 | 1013.9 |
| 20260504182003 | 78 | 0 | 0.0 | 0.9 | 0.00 | 0.00 | 0.00 | 30 | 1014.0 |
| 20260504181717 | 79 | 0 | 0.0 | 0.9 | 0.00 | 0.00 | 0.00 | 31 | 1014.0 |
| 20260504181004 | 78 | 0 | 0.0 | 0.0 | 0.00 | 0.00 | 0.00 | 33 | 1014.0 |
| 20260504180503 | 78 | 0 | 0.0 | 0.9 | 0.00 | 0.00 | 0.00 | 34 | 1014.0 |
| 20260504180004 | 77 | 0 | 0.0 | 0.9 | 0.00 | 0.00 | 0.00 | 32 | 1014.1 |
| 20260504175714 | 77 | 0 | 0.0 | 0.0 | 0.00 | 0.00 | 0.00 | 37 | 1014.1 |
| 20260504175003 | 76 | 0 | 0.0 | 0.9 | 0.00 | 0.00 | 0.00 | 34 | 1014.1 |
| 20260504174503 | 77 | 0 | 0.0 | 0.9 | 0.00 | 0.00 | 0.00 | 33 | 1014.1 |
| 20260504174003 | 77 | 0 | 0.0 | 1.7 | 0.00 | 0.00 | 0.00 | 32 | 1014.1 |
| 20260504173503 | 78 | 0 | 0.0 | 1.7 | 0.00 | 0.00 | 0.00 | 33 | 1014.2 |
| 20260504173003 | 77 | 0 | 0.0 | 0.9 | 0.00 | 0.00 | 0.00 | 33 | 1014.3 |
| 20260504172504 | 77 | 0 | 0.0 | 0.9 | 0.00 | 0.00 | 0.00 | 34 | 1014.4 |
| 20260504172004 | 77 | 0 | 0.0 | 0.9 | 0.00 | 0.00 | 0.00 | 32 | 1014.5 |
| 20260504171503 | 77 | 0 | 0.0 | 1.7 | 0.00 | 0.00 | 0.00 | 31 | 1014.6 |
| 20260504171003 | 76 | 0 | 0.0 | 2.6 | 0.00 | 0.00 | 0.00 | 33 | 1014.6 |
| 20260504170503 | 76 | 0 | 0.0 | 2.6 | 0.00 | 0.00 | 0.00 | 32 | 1014.6 |
| 20260504160218 | 73 | 0 | 0.0 | 1.7 | 0.00 | 0.00 | 0.00 | 36 | 1015.9 |
| 20260504151003 | 70 | 0 | 0.0 | 0.0 | 0.00 | 0.00 | 0.00 | 48 | 1016.1 |
| 20260504150503 | 69 | 0 | 0.0 | 0.0 | 0.00 | 0.00 | 0.00 | 47 | 1016.1 |
| 20260504150213 | 69 | 0 | 0.0 | 0.0 | 0.00 | 0.00 | 0.00 | 46 | 1016.1 |
| 20260504141003 | 61 | 0 | 0.0 | 0.0 | 0.00 | 0.00 | 0.00 | 65 | 1016.0 |
| 20260504140504 | 61 | 0 | 0.0 | 0.0 | 0.00 | 0.00 | 0.00 | 67 | 1015.9 |
| 20260504130503 | 53 | 0 | 0.0 | 0.9 | 0.00 | 0.00 | 0.00 | 82 | 1016.2 |
| 20260504110503 | 42 | 0 | 0.0 | 0.0 | 0.00 | 0.00 | 0.00 | 89 | 1015.7 |
| 20260504100503 | 43 | 0 | 0.0 | 0.0 | 0.00 | 0.00 | 0.00 | 88 | 1015.1 |
| 20260504100216 | 43 | 0 | 0.0 | 0.0 | 0.00 | 0.00 | 0.00 | 88 | 1015.2 |
| 20260504082003 | 44 | 0 | 0.0 | 0.0 | 0.00 | 0.00 | 0.00 | 86 | 1015.1 |
| 20260504081503 | 44 | 0 | 0.0 | 0.0 | 0.00 | 0.00 | 0.00 | 86 | 1015.0 |
| 20260504081003 | 44 | 0 | 0.0 | 0.0 | 0.00 | 0.00 | 0.00 | 86 | 1015.0 |
| 20260504080715 | 44 | 0 | 0.0 | 0.0 | 0.00 | 0.00 | 0.00 | 86 | 1014.9 |
| 20260504050503 | 48 | 0 | 0.0 | 0.0 | 0.00 | 0.00 | 0.00 | 77 | 1015.2 |
| 20260504050004 | 48 | 0 | 0.0 | 0.0 | 0.00 | 0.00 | 0.00 | 77 | 1015.2 |
| 20260504045504 | 48 | 0 | 0.0 | 0.0 | 0.00 | 0.00 | 0.00 | 76 | 1015.2 |
| 20260504045003 | 48 | 0 | 0.0 | 0.0 | 0.00 | 0.00 | 0.00 | 76 | 1015.2 |
| 20260504044503 | 48 | 0 | 0.0 | 0.0 | 0.00 | 0.00 | 0.00 | 76 | 1015.2 |
| 20260504044216 | 48 | 0 | 0.0 | 0.0 | 0.00 | 0.00 | 0.00 | 76 | 1015.2 |
| 20260504043503 | 49 | 0 | 0.0 | 0.0 | 0.00 | 0.00 | 0.00 | 75 | 1015.2 |
| 20260504043003 | 49 | 0 | 0.0 | 0.0 | 0.00 | 0.00 | 0.00 | 75 | 1015.3 |
| 20260504042503 | 49 | 0 | 0.0 | 0.0 | 0.00 | 0.00 | 0.00 | 74 | 1015.2 |
| 20260504042004 | 49 | 0 | 0.0 | 0.0 | 0.00 | 0.00 | 0.00 | 75 | 1015.3 |
| 20260504041503 | 49 | 0 | 0.0 | 0.0 | 0.00 | 0.00 | 0.00 | 74 | 1015.4 |
| 20260504041003 | 50 | 0 | 0.0 | 0.0 | 0.00 | 0.00 | 0.00 | 74 | 1015.5 |
| 20260504040503 | 50 | 0 | 0.0 | 0.0 | 0.00 | 0.00 | 0.00 | 74 | 1015.5 |
| 20260504040019 | 50 | 0 | 0.0 | 0.0 | 0.00 | 0.00 | 0.00 | 73 | 1015.6 |
| 20260504035503 | 50 | 0 | 0.0 | 0.0 | 0.00 | 0.00 | 0.00 | 72 | 1015.6 |
| 20260504035003 | 50 | 0 | 0.0 | 0.0 | 0.00 | 0.00 | 0.00 | 71 | 1015.6 |
| 20260504034503 | 51 | 0 | 0.0 | 0.0 | 0.00 | 0.00 | 0.00 | 70 | 1015.5 |
| 20260504034004 | 51 | 0 | 0.0 | 0.0 | 0.00 | 0.00 | 0.00 | 70 | 1015.5 |
| 20260504033504 | 51 | 0 | 0.0 | 0.0 | 0.00 | 0.00 | 0.00 | 70 | 1015.5 |
| 20260504033213 | 51 | 0 | 0.0 | 0.0 | 0.00 | 0.00 | 0.00 | 69 | 1015.5 |
| 20260504032503 | 52 | 0 | 0.0 | 0.0 | 0.00 | 0.00 | 0.00 | 69 | 1015.6 |
| 20260504032003 | 52 | 0 | 0.0 | 0.0 | 0.00 | 0.00 | 0.00 | 68 | 1015.6 |
| 20260504031504 | 52 | 0 | 0.0 | 0.0 | 0.00 | 0.00 | 0.00 | 68 | 1015.7 |
| 20260504031003 | 52 | 0 | 0.0 | 0.0 | 0.00 | 0.00 | 0.00 | 67 | 1015.7 |
| 20260504030503 | 52 | 0 | 0.0 | 0.0 | 0.00 | 0.00 | 0.00 | 67 | 1015.7 |
| 20260504030004 | 52 | 0 | 0.0 | 0.0 | 0.00 | 0.00 | 0.00 | 66 | 1015.7 |
| 20260504025503 | 52 | 0 | 0.0 | 0.0 | 0.00 | 0.00 | 0.00 | 66 | 1015.6 |
| 20260504025003 | 53 | 0 | 0.0 | 0.0 | 0.00 | 0.00 | 0.00 | 66 | 1015.6 |
| 20260504024503 | 53 | 0 | 0.0 | 0.0 | 0.00 | 0.00 | 0.00 | 65 | 1015.7 |
| 20260504024217 | 53 | 0 | 0.0 | 0.0 | 0.00 | 0.00 | 0.00 | 64 | 1015.6 |
| 20260504023503 | 54 | 0 | 0.0 | 0.0 | 0.00 | 0.00 | 0.00 | 63 | 1015.5 |
| 20260504023213 | 54 | 0 | 0.0 | 0.0 | 0.00 | 0.00 | 0.00 | 63 | 1015.4 |
| 20260504022716 | 54 | 0 | 0.0 | 0.0 | 0.00 | 0.00 | 0.00 | 62 | 1015.4 |
| 20260504022003 | 54 | 0 | 0.0 | 0.0 | 0.00 | 0.00 | 0.00 | 61 | 1015.2 |
| 20260504021503 | 55 | 0 | 0.0 | 0.0 | 0.00 | 0.00 | 0.00 | 61 | 1015.2 |
| 20260504021003 | 55 | 0 | 0.0 | 0.0 | 0.00 | 0.00 | 0.00 | 60 | 1015.1 |
| 20260504020713 | 55 | 0 | 0.0 | 0.0 | 0.00 | 0.00 | 0.00 | 59 | 1015.1 |
| 20260504020004 | 56 | 0 | 0.0 | 0.0 | 0.00 | 0.00 | 0.00 | 58 | 1015.0 |
| 20260504015503 | 56 | 0 | 0.0 | 0.0 | 0.00 | 0.00 | 0.00 | 58 | 1014.9 |
| 20260504015003 | 56 | 0 | 0.0 | 0.0 | 0.00 | 0.00 | 0.00 | 57 | 1014.9 |
| 20260504014503 | 56 | 0 | 0.0 | 0.0 | 0.00 | 0.00 | 0.00 | 57 | 1014.9 |
| 20260504014003 | 56 | 0 | 0.0 | 0.0 | 0.00 | 0.00 | 0.00 | 56 | 1014.8 |
| 20260504013503 | 57 | 0 | 0.0 | 0.0 | 0.00 | 0.00 | 0.00 | 56 | 1014.7 |
| 20260504013003 | 57 | 0 | 0.0 | 0.0 | 0.00 | 0.00 | 0.00 | 55 | 1014.6 |
| 20260504012717 | 57 | 0 | 0.0 | 0.0 | 0.00 | 0.00 | 0.00 | 56 | 1014.6 |
| 20260504012003 | 58 | 0 | 0.0 | 0.0 | 0.00 | 0.00 | 0.00 | 57 | 1014.6 |
| 20260504011503 | 58 | 0 | 0.0 | 0.0 | 0.00 | 0.00 | 0.00 | 57 | 1014.5 |
| 20260504011216 | 58 | 0 | 0.0 | 0.0 | 0.00 | 0.00 | 0.00 | 56 | 1014.5 |
| 20260504010503 | 58 | 0 | 0.0 | 0.0 | 0.00 | 0.00 | 0.00 | 54 | 1014.4 |
| 20260504010004 | 58 | 0 | 0.0 | 0.0 | 0.00 | 0.00 | 0.00 | 55 | 1014.4 |
| 20260504005503 | 58 | 0 | 0.0 | 0.0 | 0.00 | 0.00 | 0.00 | 54 | 1014.4 |
| 20260504005004 | 59 | 0 | 0.0 | 0.0 | 0.00 | 0.00 | 0.00 | 53 | 1014.4 |
| 20260504004716 | 59 | 0 | 0.0 | 0.0 | 0.00 | 0.00 | 0.00 | 53 | 1014.3 |
| 20260504004003 | 59 | 0 | 0.0 | 0.0 | 0.00 | 0.00 | 0.00 | 52 | 1014.3 |
| 20260504003503 | 60 | 0 | 0.0 | 0.0 | 0.00 | 0.00 | 0.00 | 50 | 1014.4 |
| 20260504003003 | 60 | 0 | 0.0 | 0.0 | 0.00 | 0.00 | 0.00 | 50 | 1014.3 |
| 20260504002504 | 61 | 0 | 0.0 | 0.0 | 0.00 | 0.00 | 0.00 | 50 | 1014.2 |
| 20260504002216 | 61 | 0 | 0.0 | 0.0 | 0.00 | 0.00 | 0.00 | 49 | 1014.2 |